Weather History for Baker, MT

Change the Weather History Date:

Thursday, May 2, 2013

  Actual Average Record
Temperature  
Mean Temperature 39 °F -  
Max Temperature 57 °F 79 °F 79 °F (2007)
Min Temperature 23 °F 40 °F 21 °F (2004)
Degree Days  
Heating Degree Days 26    
Moisture  
Dew Point 14 °F    
Average Humidity 37    
Maximum Humidity 60    
Minimum Humidity 17    
Precipitation  
Precipitation 0.00 in - - ()
Sea Level Pressure  
Sea Level Pressure 30.54 in    
Wind  
Wind Speed 5 mph (SW)    
Max Wind Speed 13 mph    
Max Gust Speed 21 mph    
Visibility 10 miles    
Events      
Averages and records for this station are not official NWS values.
T = Trace of Precipitation, MM = Missing Value Source: NWS Daily Summary

Daily Weather History Graph

Daily Weather History Graph

Search for Another Location

Airport:

Trip Planner

Search our weather history database for the weather conditions in past years. The results will help you decide how hot, cold, wet, or windy it might be!

Date:

Astronomy

May. 02, 2013 Rise Set
Actual Time 5:41 AM MDT 8:07 PM MDT
Civil Twilight 5:07 AM MDT 8:41 PM MDT
Nautical Twilight 4:25 AM MDT 9:23 PM MDT
Astronomical Twilight 3:37 AM MDT 10:11 PM MDT
Moon 1:55 AM MDT (5/2) 12:35 PM MDT (5/2)
Length of Visible Light 15h 33m
Length of Day
14h 26m
Waning Gibbous, 47% of the Moon is Illuminated
May 2
Waning Gibbous
May 9
New
May 17
First Quarter
May 24
Full
May 31
Last Quarter

Hourly Weather History & Observations

Time (MDT) Temp. Windchill Dew Point Humidity Pressure Visibility Wind Dir Wind Speed Gust Speed Precip Events Conditions
12:51 AM 25.0 °F - 12.0 °F 58% 30.67 in 10.0 mi Calm Calm - N/A   Partly Cloudy
1:51 AM 27.0 °F - 12.9 °F 56% 30.66 in 10.0 mi Calm Calm - N/A   Partly Cloudy
2:51 AM 25.0 °F 19.3 °F 10.9 °F 55% 30.65 in 10.0 mi SSE 4.6 mph - N/A   Clear
3:51 AM 23.0 °F 15.8 °F 10.9 °F 60% 30.66 in 10.0 mi SE 5.8 mph - N/A   Clear
4:51 AM 24.1 °F 17.0 °F 10.9 °F 57% 30.65 in 10.0 mi SE 5.8 mph - N/A   Mostly Cloudy
5:51 AM 27.0 °F 18.7 °F 14.0 °F 58% 30.65 in 10.0 mi SE 8.1 mph - N/A   Mostly Cloudy
6:51 AM 30.0 °F 26.5 °F 16.0 °F 56% 30.65 in 10.0 mi ESE 3.5 mph - N/A   Mostly Cloudy
7:51 AM 39.0 °F 36.8 °F 14.0 °F 36% 30.63 in 10.0 mi South 3.5 mph - N/A   Clear
8:51 AM 45.0 °F 40.1 °F 14.0 °F 29% 30.62 in 10.0 mi West 9.2 mph - N/A   Clear
9:51 AM 48.0 °F - 15.1 °F 27% 30.62 in 10.0 mi WNW 12.7 mph 16.1 mph N/A   Clear
10:51 AM 50.0 °F - 16.0 °F 26% 30.61 in 10.0 mi NW 9.2 mph 18.4 mph N/A   Clear
11:51 AM 52.0 °F - 16.0 °F 24% 30.59 in 10.0 mi WNW 11.5 mph 20.7 mph N/A   Clear
12:51 PM 52.0 °F - 12.9 °F 21% 30.56 in 10.0 mi NW 8.1 mph 17.3 mph N/A   Clear
1:51 PM 54.0 °F - 12.9 °F 20% 30.52 in 10.0 mi WNW 9.2 mph - N/A   Clear
2:51 PM 54.0 °F - 12.9 °F 20% 30.50 in 10.0 mi West 5.8 mph - N/A   Clear
3:51 PM 55.9 °F - 12.0 °F 18% 30.48 in 10.0 mi NW 11.5 mph 17.3 mph N/A   Clear
4:51 PM 55.9 °F - 12.0 °F 18% 30.46 in 10.0 mi WNW 11.5 mph - N/A   Clear
5:51 PM 55.0 °F - 10.0 °F 17% 30.44 in 10.0 mi WNW 4.6 mph - N/A   Clear
6:51 PM 55.0 °F - 10.9 °F 17% 30.42 in 10.0 mi Calm Calm - N/A   Clear
7:51 PM 52.0 °F - 16.0 °F 24% 30.41 in 10.0 mi NE 4.6 mph - N/A   Clear
8:51 PM 41.0 °F 38.0 °F 17.1 °F 38% 30.41 in 10.0 mi SE 4.6 mph - N/A   Clear
9:51 PM 36.0 °F 31.1 °F 18.0 °F 48% 30.41 in 10.0 mi SE 5.8 mph - N/A   Clear
10:51 PM 36.0 °F 32.1 °F 17.1 °F 46% 30.40 in 10.0 mi SE 4.6 mph - N/A   Clear
11:51 PM 33.1 °F 28.7 °F 17.1 °F 52% 30.38 in 10.0 mi SE 4.6 mph - N/A   Clear